Regional Weather Roundup
Issued by NWS

Home | Current Version | Previous Version | Text Only | Print | Product List | Glossary Off
Versions: 1 2 3 4 5 6 7 8 9 10 11 12 13 14 15 16 17 18 19 20 21 22 23 24 25 26 27 28 29 30 31 32 33 34 35 36 37 38 39 40 41 42 43 44 45 46 47 48 49 50

000
ASUS43 KIND 152309
RWRIN

WEATHER ROUNDUP FOR INDIANA
NATIONAL WEATHER SERVICE INDIANAPOLIS IN
600 PM EST FRI DEC 15 2017

NOTE: "FAIR" INDICATES FEW OR NO CLOUDS BELOW 12,000 FEET WITH NO
SIGNIFICANT WEATHER AND/OR OBSTRUCTIONS TO VISIBILITY.

* - STATION DOES NOT REPORT WEATHER SUCH AS PRECIPITATION OR FOG.

+ - STATION NOT QUALITY CONTROLLED BY THE NATIONAL WEATHER SERVICE.
    USE DATA WITH CAUTION...ESPECIALLY DEWPOINT AND RELATIVE
    HUMIDITY OBSERVATIONS.

INZ001>003-010>013-019-020-160000-
NORTHWEST INDIANA

CITY           SKY/WX    TMP DP  RH WIND       PRES   REMARKS
GARY /AIRPORT/ CLOUDY    34  19  55 SW10G25   29.94R WCI  26
KNOX *+        CLOUDY    32  21  64 W7        29.94R WCI  26
LA PORTE +     PTCLDY    30  21  68 SW10      29.93R WCI  21
MICHIGAN CITY+ CLOUDY    32  21  64 W12G18    29.93R WCI  23
MONTICELLO +   CLOUDY    32  17  53 SW10G16   29.97R WCI  24
RENSSELAER +   CLOUDY    34  12  40 SW13      29.97R WCI  25
VALPARAISO     CLOUDY    32  22  66 SW10      29.93R WCI  24

$$

LMZ046-743>745-160000-
SOUTHERN LAKE MICHIGAN

STATION/POSITION TIME  TEMP    WIND        PRES    WAVE
                       AIR SEA DIR/SP/G            HT
                 (UTC) (F)     (DEG/KT/KT) (MB)    (FT)
BURNS HARBOR     2240   33     240/ 14/ 19 1013.9R
MICHIGAN CITY    2240   33     230/ 24/ 28   N/A

$$

INZ004-005-014>016-021>024-160000-
NORTH CENTRAL INDIANA

CITY           SKY/WX    TMP DP  RH WIND       PRES   REMARKS
ELKHART        MOCLDY    30  19  64 W9        29.91R WCI  22
GOSHEN         CLOUDY    28  18  66 SW12      29.91R WCI  18
LOGANSPORT +   CLOUDY    32  19  59 SW12      29.97R WCI  23
PERU/GRISSOM   CLOUDY    31  18  57 W12       29.95S WCI  22
ROCHESTER +    CLOUDY    32  21  64 W7        29.95R WCI  26
SOUTH BEND     CLOUDY    29  21  72 SW12      29.92R WCI  19
WARSAW +       CLOUDY    30  18  59 W8        29.92R WCI  23

$$

INZ006>009-017-018-025>027-160000-
NORTHEAST INDIANA

CITY           SKY/WX    TMP DP  RH WIND       PRES   REMARKS
AUBURN +       CLOUDY    28  16  59 SW7       29.92R WCI  21
FORT WAYNE     CLOUDY    29  18  63 SW12      29.94S WCI  19
HUNTINGTON +   CLOUDY    29  16  57 SW6       29.95R WCI  23
KENDALLVILLE + CLOUDY    27  17  66 SW10      29.91R WCI  17

$$

INZ028-029-035-036-043>045-051>053-160000-
WEST CENTRAL INDIANA

CITY           SKY/WX    TMP DP  RH WIND       PRES   REMARKS
CRAWFORDSVL +  CLOUDY    30  18  61 MISG      30.01R
GREENCASTLE +  CLOUDY    32  19  59 SW3       30.03S
LAFAYETTE      CLOUDY    32  18  56 SW8       29.99S WCI  25
TERRE HAUTE    CLOUDY    33  19  56 SW6       30.05S WCI  28

$$

INZ030>032-037>040-046>048-054>057-064-065-160000-
CENTRAL INDIANA

CITY           SKY/WX    TMP DP  RH WIND       PRES   REMARKS
COLUMBUS       PTCLDY    30  19  64 W8        30.07R WCI  23
FRANKFORT +    CLOUDY    33  19  57 W12       30.00S WCI  24
INDIANAPOLIS   MOCLDY    30  18  60 SW9       30.03R WCI  22
-EAGLE CREEK   MOCLDY    31  17  56 SW5       30.01S WCI  26
KOKOMO +       MIX PCPN  31  19  61 SW13      29.98R WCI  21
MARION +       CLOUDY    30  18  60 SW6       29.98R WCI  24
MT COMFORT *+  CLEAR     27  21  80 SW10      30.01S WCI  17
SHELBYVILLE    MOCLDY    30  18  60 SW6       30.03R WCI  24
ZIONSVILLE +   CLOUDY    29  17  61 SW10      30.01R WCI  20

$$

INZ033-034-041-042-049-050-058-059-160000-
EAST CENTRAL INDIANA

CITY           SKY/WX    TMP DP  RH WIND       PRES   REMARKS
MUNCIE         MOCLDY    31  15  52 W8        29.98R WCI  23
RICHMOND +     MOCLDY    28  21  74 W12       30.01R WCI  18

$$

INZ060-061-067>069-081>083-085>088-160000-
SOUTHWEST INDIANA

CITY           SKY/WX    TMP DP  RH WIND       PRES   REMARKS
EVANSVILLE     CLOUDY    39  26  59 W5        30.11R WCI  36
HUNTINGBURG +  CLOUDY    36  25  64 SW7       30.10R WCI  30
WASHINGTON +   CLEAR     32  23  70 W3        30.09R

$$

INZ062-063-066-070>080-084-089>092-160000-
SOUTH CENTRAL AND SOUTHEAST INDIANA

CITY           SKY/WX    TMP DP  RH WIND       PRES   REMARKS
BEDFORD +      CLEAR     32  23  69 W3        30.06R
BLOOMINGTON    PTCLDY    31  21  66 W3        30.05R
MADISON *+     CLOUDY    32  21  64 SW5       30.08R WCI  27
NORTH VERNON + CLOUDY    30  21  69 SW6       30.07R WCI  24
SEYMOUR +      CLOUDY    32  21  64 W7        30.07R WCI  26

$$





USA.gov is the U.S. government's official web portal to all federal, state and local government web resources and services.